This is the latest recevied weather packets stored in our database for station/object KN6KS. If no packets are shown the sender has not sent any weather packets the latest 10 day(s).
| Time | Temp. | Humidity | Pressure | Rain* | Wind** | Luminosity | Snow |
|---|---|---|---|---|---|---|---|
| 1777789281 | 18.33° C | 57% | 1011.6 hPa | 0 mm | - | 0 W/m² | - |
| 1777788978 | 17.78° C | 56% | 1011.7 hPa | 0 mm | - | 0 W/m² | - |
| 1777788674 | 17.78° C | 57% | 1011.8 hPa | 0 mm | - | 0 W/m² | - |
| 1777788369 | 17.78° C | 57% | 1011.6 hPa | 0 mm | - | 0 W/m² | - |
| 1777788064 | 17.78° C | 58% | 1011.5 hPa | 0 mm | - | 0 W/m² | - |
| 1777787760 | 17.78° C | 59% | 1011.6 hPa | 0 mm | - | 0 W/m² | - |
| 1777787456 | 17.78° C | 60% | 1011.5 hPa | 0 mm | - | 0 W/m² | - |
| 1777787152 | 17.78° C | 59% | 1011.7 hPa | 0 mm | - | 0 W/m² | - |
| 1777786849 | 18.33° C | 61% | 1011.6 hPa | 0 mm | - | 0 W/m² | - |
| 1777786547 | 18.33° C | 61% | 1011.6 hPa | 0 mm | - | 0 W/m² | - |
| 1777786244 | 18.33° C | 60% | 1011.6 hPa | 0 mm | - | 0 W/m² | - |
| 1777785941 | 18.89° C | 59% | 1011.6 hPa | 0 mm | - | 0 W/m² | - |
| 1777785637 | 18.89° C | 58% | 1011.4 hPa | 0 mm | - | 0 W/m² | - |
| 1777785333 | 18.89° C | 58% | 1011.6 hPa | 0 mm | - | 0 W/m² | - |
| 1777785031 | 19.44° C | 57% | 1011.5 hPa | 0 mm | - | 0 W/m² | - |
| 1777784726 | 19.44° C | 56% | 1011.4 hPa | 0 mm | - | 0 W/m² | - |
| 1777784424 | 20° C | 55% | 1011.3 hPa | 0 mm | - | 0 W/m² | - |
| 1777784121 | 20° C | 56% | 1011.2 hPa | 0 mm | - | 0 W/m² | - |
| 1777783818 | 20° C | 56% | 1011.4 hPa | 0 mm | - | 0 W/m² | - |
| 1777783515 | 19.44° C | 57% | 1011.2 hPa | 0 mm | - | 0 W/m² | - |
| 1777783213 | 19.44° C | 59% | 1011.2 hPa | 0 mm | - | 0 W/m² | - |
| 1777782908 | 20° C | 58% | 1011.3 hPa | 0 mm | - | 0 W/m² | - |
| 1777782605 | 20° C | 58% | 1011.2 hPa | 0 mm | - | 0 W/m² | - |
| 1777782302 | 20° C | 57% | 1011.1 hPa | 0 mm | - | 0 W/m² | - |
| 1777781998 | 20.56° C | 54% | 1011.1 hPa | 0 mm | - | 0 W/m² | - |
* Rain latest hour (hover to see other rain measurements)
** Current wind speed in m/s (hover to see current wind gust speed)